STARLINK-3771, 52293

Orbit data source: Space-Track

STARLINK-3771, 52293 is a payload satellite owned by SpaceX/Seattle (US) in LEO that was launched on Thu, 21 Apr 2022 UTC via an FALCON 9 launch vehicle from the Air Force Eastern Test Range (AFETR). Payload-class satellites include a variety of spacecraft equipped with specific instruments for various scientific and technological missions. These include communications satellites like Starlink; space stations such as the ISS; scientific satellites like the Hubble; Earth observation satellites from companies like Planet Labs, Umbra, and HawkEye 360; GPS; miniature CubeSats for education and research; and military/defense satellites.

Loading next visibility...
Identifier
52293, 2022-041AJ
Orbit
LEO
Country
Flag of USUS
Related business
Manufacturer
SpaceX/Seattle
Mission
Operational Commercial Communications
Bus & Motor
STARLINK, Unknown motor
Mass
297 kg wet, ~275 kg dry
Launch date (UTC)
2022-04-21 (4 years ago)
Launch vehicle
FALCON 9
Launch site
Air Force Eastern Test Range (AFETR)
Object type
Payload
Rocket body
Debris
Shape & HBR
Box + 1 Pan, 10.1 m
Radar Cross Section
11.087 m², Large (>1 m²)

Expand to show TLE details & history
Last TLE update: 1 day ago

TLE from 1 day ago
0 STARLINK-3771
1 52293U 22041AJ  26129.43754720 -.00000071  00000-0  13655-4 0  9995
2 52293  53.2163 186.4209 0001260  88.3353 271.7784 15.08839387223670
Epoch: 2026-05-09T10:30Z
TLE epoch observation values (Epoch: 2026-05-09T10:30:04.078Z)
Latitude
0.00004°
Longitude
161.64895°
Altitude
540.616 km
Speed
7.593 km/s
True Right ascension
12h 25m 41s
True Declination
0° 00' 00"
Sunlit
Object was in full shadow at epoch
Visualization orbit readout
Latitude
Unknown
Longitude
Unknown
Altitude
Unknown
Speed
Unknown
Apparent Right ascension
Unknown
Apparent Declination
Unknown
Sunlit
N/A
Visualization observer readout
Local Sidereal Time
23:38:16
Azimuth
Unknown
Elevation
Unknown
Doppler factor
Unknown
Orbital elements
Apogee altitude
540.862 km
Perigee altitude
539.119 km
Semi-major axis
6,918.127 km
Eccentricity
0.00013
Inclination
53.2163°
RAAN
186.4209°
Arg. of periapsis
88.3353°
True anomaly
271.76397°
Mean anomaly
271.7784°
Eccentric anomaly
271.77118°
Mean motion
3.7719 °/min
Orbital period
95.44 mins
BSTAR
0.000013655
Loading maneuver chart data...
Computing Atmospheric mass density...
Loading historical data...
Loading historical data...
Loading historical data...
Loading historical data...
Loading historical data...
Loading historical data...
Loading historical data...

Documentation

Showing up to 5 results
|